Regional Weather Roundup
Issued by NWS

Home | Current Version | Previous Version | Text Only | Print | Product List | Glossary On
Versions: 1 2 3 4 5 6 7 8 9 10 11 12 13 14 15 16 17 18 19 20 21 22 23 24 25 26 27 28 29 30 31 32 33 34 35 36 37 38 39 40 41 42 43 44 45 46 47 48 49 50
000
ASUS43 KMPX 041510
RWRMN
WEATHER ROUNDUP FOR MINNESOTA
NATIONAL WEATHER SERVICE TWIN CITIES/CHANHASSEN MN
1000 AM CDT SAT JUL 04 2015


NOTE: "FAIR" INDICATES FEW OR NO CLOUDS BELOW 12,000 FEET WITH NO
SIGNIFICANT WEATHER AND/OR OBSTRUCTIONS TO VISIBILITY. N/A MEANS
CURRENT SKY AND/OR WEATHER CONDITIONS ARE NOT AVAILABLE.

MNZ060>063-068>070-041600-
   Twin Cities Metro

CITY           SKY/WX    TMP DP  RH WIND       PRES   REMARKS
TWIN CITIES    PTSUNNY   74  63  68 S5        29.95S
ST PAUL        SUNNY     72  64  76 CALM      29.95S
CRYSTAL        SUNNY     77  65  66 CALM      29.93S HAZE
BLAINE         SUNNY     75  68  78 CALM      29.95S
LAKEVILLE      SUNNY     73  64  73 CALM      29.95F
EDEN PRAIRIE   SUNNY     72  63  73 CALM      29.94S
SOUTH ST PAUL  SUNNY     74  63  69 CALM      29.95S
LAKE ELMO      FAIR      73  64  73 CALM      29.96F
$$
MNZ001>005-007-008-013>017-022>024-027-028-041600-
   Northwest Minnesota

CITY           SKY/WX    TMP DP  RH WIND       PRES   REMARKS
BEMIDJI        SUNNY     72  58  60 S6        29.94S
HALLOCK        SUNNY     73  64  73 S9        29.84S HAZE
ROSEAU         MOSUNNY   70  63  78 S9        29.88F HAZE
WARROAD        MOSUNNY   72  63  73 S7        29.89F
THIEF RVR FALL SUNNY     72  63  73 S9        29.89F
CROOKSTON      SUNNY     73  64  73 S12       29.88F HAZE
FOSSTON        SUNNY     72  61  68 CALM      29.92S HAZE
DETROIT LAKES  SUNNY     73  63  68 S8        29.93F HAZE
MOORHEAD       SUNNY     73  66  78 S9        29.90S HAZE
PARK RAPIDS    CLOUDY    72  57  59 S8        29.94F
MAHNOMEN       FAIR      73  63  71 S6        29.91S
$$
MNZ006-009>011-018-025>026-041600-
   North Central Minnesota

CITY           SKY/WX    TMP DP  RH WIND       PRES   REMARKS
BAUDETTE       SUNNY     70  60  70 S6        29.91F
FLAG ISLAND    MOSUNNY   70  61  73 S8        29.88F
INTL FALLS     SUNNY     70  57  63 SE6       29.94F
WASKISH        SUNNY     72  61  68 SE5       29.93S
BIG FORK       SUNNY     73  59  60 S7        29.96S
LONGVILLE      SUNNY     70  61  73 CALM      29.95F
GRAND RAPIDS   SUNNY     70  57  64 SE3       29.97S
CRANE LAKE     SUNNY     66  57  72 SE3       29.98F
ORR            SUNNY     70  55  60 S3        29.95S
COOK           SUNNY     70  59  68 CALM      29.98S
WALKER         FAIR      71  58  64 S6        29.94F
$$
MNZ012-019>021-037-041600-
   Northeast Minnesota

CITY           SKY/WX    TMP DP  RH WIND       PRES   REMARKS
DULUTH         SUNNY     70  59  68 E6        29.97F
ELY            SUNNY     68  55  64 SE5       29.98F
HIBBING        SUNNY     71  58  63 S3        29.97F
DULUTH HARBOR  SUNNY     64  59  82 E7        29.97F
TWO HARBORS    SUNNY     73  63  68 E8        29.96F
SILVER BAY     SUNNY     70  55  60 E8        29.97S
GRAND MARAIS     N/A     60  52  74 CALM      29.98F
G MARAIS ARPRT SUNNY     64  54  68 SE3       30.02S
$$
MNZ029>031-032-039>041-046>048-054>057-064-041600-
   West Central Minnesota

CITY           SKY/WX    TMP DP  RH WIND       PRES   REMARKS
FERGUS FALLS   SUNNY     73  64  73 S7        29.91S HAZE
WHEATON        SUNNY     72  66  83 S5        29.92F
MORRIS         SUNNY     75  66  73 SW3       29.92S HAZE
ALEXANDRIA     MOSUNNY   74  66  76 S6        29.95S HAZE
ELBOW LAKE     FAIR      73  66  79 SE8       29.92S HAZE
WADENA         SUNNY     72  61  68 SE5       29.94S HAZE
GLENWOOD       SUNNY     75  66  73 S3        29.95S HAZE
APPLETON       SUNNY     77  64  65 SW3       29.92S
BENSON         SUNNY     73  66  78 CALM      29.93S HAZE
ORTONVILLE     SUNNY     73  66  78 CALM      29.92S
MADISON        SUNNY     75  64  69 CALM      29.93S
WILLMAR        FAIR      75  70  83 CALM      29.95S
$$
MNZ033>034-036-042>043-049>051-058-059-041600-
   Central Minnesota

CITY           SKY/WX    TMP DP  RH WIND       PRES   REMARKS
ST CLOUD       PTSUNNY   73  63  70 E5        29.94S HAZE
SAUK CENTRE    FAIR      72  66  82 CALM      29.95R HAZE
PAYNESVILLE    SUNNY     68  67  95 SE5       29.95S
AITKIN         SUNNY     73  61  64 SE3       29.94S
PINE RIVER       N/A     70  61  73 SE3       29.98S
BRAINERD       SUNNY     73  59  61 SE6       29.95F HAZE
STAPLES        SUNNY     70  59  68 SE3       29.94F HAZE
LONG PRAIRIE   PTSUNNY   70  63  78 SE5       29.95S HAZE
LITTLE FALLS   SUNNY     72  59  64 E3        29.94S HAZE
LITCHFIELD     SUNNY     75  70  83 SE5       29.95S
BUFFALO        SUNNY     73  65  77 CALM      29.96S
MAPLE LAKE     SUNNY     73  69  87 CALM      29.95S FOG
$$
MNZ037-044-045-052-053-041600-
   East Central Minnesota

CITY           SKY/WX    TMP DP  RH WIND       PRES   REMARKS
PRINCETON      SUNNY     73  64  73 CALM      29.95S HAZE
MORA           SUNNY     70  59  68 CALM      29.97S
CAMBRIDGE      SUNNY     75  63  64 CALM      29.93S HAZE
RUSH CITY      SUNNY     71  64  78 CALM      29.95S
MOOSE LAKE     SUNNY     70  59  68 CALM      29.94F
HINCKLEY       FAIR      72  63  73 CALM      29.95F
CLOQUET        SUNNY     70  61  73 SE5       29.97F
MCGREGOR       SUNNY     72  59  64 CALM      29.96S
$$
MNZ071>073-080-081-089-090-097-098-041600-
   Southwest Minnesota

CITY           SKY/WX    TMP DP  RH WIND       PRES   REMARKS
MONTEVIDEO     SUNNY     79  72  78 W5        29.94S
GRANITE FALLS  SUNNY     74  66  75 CALM      29.95F
CANBY          SUNNY     75  65  69 SW7       29.95S
MARSHALL       SUNNY     77  64  65 SW8         N/A
REDWOOD FALLS  SUNNY     76  66  71 SW5       29.94S
OLIVIA         SUNNY     72  63  73 W5        29.94S
PIPESTONE      SUNNY     72  64  78 SW7       29.98R
WINDOM         SUNNY     73  63  68 SW6       29.97F
WORTHINGTON    SUNNY     72  63  73 SW7       29.98F
JACKSON        SUNNY     72  63  73 SW7       29.99S
TRACY          SUNNY     76  66  72 SW7       29.96S
SLAYTON        SUNNY     73  64  74 CALM      29.98F
$$
MNZ065>067-074>077-082>085-091>093-041600-
   South Central Minnesota

CITY           SKY/WX    TMP DP  RH WIND       PRES   REMARKS
MANKATO        SUNNY     72  63  73 CALM      29.96F
NEW ULM        SUNNY     73  66  78 SW5       29.95S
ST JAMES       SUNNY     73  64  73 SW5       29.97F
FAIRMONT       SUNNY     72  57  60 SW3       29.98S
GLENCOE        SUNNY     74  68  82 S3        29.95S
FARIBAULT      SUNNY     72  64  78 CALM      29.97S
OWATONNA       SUNNY     72  63  73 SW3       29.97F
WASECA         SUNNY     72  64  78 W3        29.98F HAZE
ALBERT LEA     SUNNY     72  63  73 W5        29.98F
$$
MNZ078>079-086>088-094>096-041600-
   Southeast Minnesota

CITY           SKY/WX    TMP DP  RH WIND       PRES   REMARKS
ROCHESTER      SUNNY     72  63  73 SW6       29.99F
RED WING       SUNNY     73  61  64 CALM      29.95S
STANTON        SUNNY     72  64  78 CALM      29.95S
DODGE CENTER   SUNNY     72  64  78 SW5       29.98F
WINONA         SUNNY     72  61  68 CALM      29.97S
AUSTIN         SUNNY     73  63  68 W5        29.98F
PRESTON        SUNNY     71  62  73 SW5       30.00R
$$
ABBREVIATIONS USED IN REMARKS
   TC - TEMPERATURES IN CELSIUS
  WCI - WIND CHILL INDEX
   HX - HEAT INDEX
  VSB - VISIBILITY
$$



USA.gov is the U.S. government's official web portal to all federal, state and local government web resources and services.